sat.trackr.live / text

‹ back to catalog

JUPITER 3 (ECHOSTAR 24)

NORAD 57479 · 2023-108A

PAYLOAD ACTIVE UNKNOWN

§ Identity

Operator
Country
US
Launch date
2023-07-29
Launch site
AFETR
Launch vehicle
Mass (kg)
RCS (m²)

Purposes: comms

External: N2YO · Heavens-Above · Gunter

§ Orbital elements

Epoch: 2026-09-18T06:32:03.258816Z

Period
1,436.12 min
Inclination
0.0225°
Eccentricity
0.0001103
Mean motion
1.00270175 rev/d
Perigee alt
35,782.4 km
Apogee alt
35,791.7 km
Semi-major
42,165.2 km
B*
0.0000e+0
RAAN
159.7386°
Arg perigee
20.1603°
Mean anomaly
180.1011°
Rev number
1,158

§ Raw data

JUPITER 3 (ECHOSTAR 24)1 57479U 23108A   26261.27225994  .00000000  00000+0  00000+0 0  99912 57479   0.0225 159.7386 0001103  20.1603 180.1011  1.00270175 11589

JSON: /api/v1/satellites/57479 · /tle

For live sub-satellite position, see the globe view (requires WebGL).

§ Visibility from observer

Set your observer location to see the next 7 days of passes ≥ 10°. The values pass through the URL so the page stays shareable.

No JS? Fill the form by hand. The geolocation button needs JavaScript.